[[{"header":{"parameterUnit":"m.s-1","parameterCategory":2,"la1":30.2991,"la2":30.254,"lo1":-89.0895,"lo2":-89.0444,"dy":0.0017,"dx":0.0017,"nx":28,"ny":28,"refTime":"2023-11-13T03:00:00:Z","depth":"0","parameterNumber":2,"parameterNumberName":"U-component_of_CURRENTS"},"data":[0,0,0,0,0,0,0,0,0,0,0,0,0,0,0,0,0,0,0,0,0,0,0,0,0,0,0,0,0,0,0,0,0,0,0,0,0,0,0,0,0,0,0,0,0,0,0,0,0,0,0,0,0,0,0,0,0,0,0.1582,0.1582,0,0.1607,0.1607,0.1607,0.1611,0.1611,0.1611,0.1611,0.1605,0.1604,0.1604,0,0,0,0,0,0,0,0,0,0,0,0,0,0.1518,0.1519,0.1581,0.1582,0.1583,0.1607,0.1607,0.1607,0.1611,0.1611,0.1611,0.1611,0.1605,0.1604,0.1604,0,0,0,0,0,0,0,0,0,0,0,0,0,0.1543,0.1519,0.1581,0.1589,0.159,0.1607,0.1607,0.1607,0.1611,0.1611,0.1611,0.1611,0.1605,0.1604,0.1604,0.1603,0,0,0.1603,0.1603,0,0,0,0,0,0,0,0,0.1541,0.1545,0.1587,0.1589,0.159,0.1608,0.1583,0.1605,0.1611,0.1601,0.1611,0.1611,0.1604,0.1604,0.1606,0.1603,0.1603,0.1603,0.1603,0.1603,0.1603,0,0,0,0,0,0,0,0.154,0.1544,0.1589,0.1588,0.159,0.1585,0.1589,0.1587,0.16,0.1602,0.1603,0.1609,0.1604,0.1606,0.1606,0.1603,0.1603,0.1603,0.1603,0.1603,0.1629,0.163,0,0,0,0,0,0,0.1542,0.1542,0.1589,0.159,0.1568,0.1587,0.159,0.16,0.1601,0.1602,0.1609,0.1609,0.1607,0.1606,0.1606,0.1633,0.1603,0.1603,0.1603,0.1628,0.1629,0.163,0,0,0,0,0,0,0.1541,0.1546,0.1588,0.1568,0.1573,0.1588,0.1599,0.1601,0.1607,0.1607,0.1607,0.1615,0.1607,0.1606,0.1614,0.1631,0.1603,0.1603,0.1627,0.1629,0.163,0.1669,0,0,0,0,0,0,0.1539,0.1546,0.1551,0.1569,0.1575,0.1605,0.1599,0.1602,0.1612,0.1613,0.1612,0.1611,0.1607,0.1615,0.1614,0.163,0.1603,0.1626,0.1628,0.1629,0.1666,0.1671,0.1675,0,0,0,0,0,0.1537,0.1546,0.1551,0.1556,0.1583,0.1606,0.1608,0.1616,0.1613,0.162,0.1621,0.1611,0.1624,0.1615,0.1614,0.1631,0.1625,0.1627,0.1629,0.1664,0.167,0.1675,0,0,0,0,0,0,0.1516,0.1548,0.1554,0.1571,0.159,0.1607,0.1615,0.1619,0.1626,0.1624,0.1619,0.1619,0.1634,0.1626,0.1617,0.1644,0.1624,0.1626,0.1651,0.1657,0.1661,0.1665,0.1602,0,0,0,0,0,0.1516,0.1534,0.156,0.1574,0.1585,0.1599,0.1608,0.1616,0.1626,0.1629,0.163,0.1632,0.164,0.1643,0.1646,0.1658,0.1667,0.1669,0.1674,0.1677,0.1681,0.1711,0.1718,0.1636,0.1636,0.1636,0,0,0.1511,0.1532,0.154,0.1571,0.1585,0.1606,0.1604,0.1623,0.1639,0.1627,0.1643,0.1645,0.1646,0.1664,0.167,0.1661,0.1708,0.168,0.1683,0.1684,0.1713,0.1721,0.1729,0.1638,0.1637,0.1637,0,0,0.1513,0.153,0.1547,0.1568,0.1598,0.161,0.1618,0.1639,0.1648,0.1665,0.1664,0.1678,0.1683,0.1694,0.1699,0.1728,0.173,0.1729,0.1756,0.1785,0.1792,0.1798,0.1833,0.1842,0.1732,0.1732,0.1733,0,0.1503,0.1533,0.1554,0.1579,0.1597,0.1614,0.1635,0.1649,0.167,0.1682,0.1674,0.1702,0.1699,0.1731,0.1743,0.1738,0.1758,0.1735,0.1792,0.1798,0.1803,0.1837,0.1847,0.1735,0.1734,0.1734,0.1734,0,0.1523,0.1546,0.1559,0.1598,0.1619,0.1641,0.1669,0.1687,0.1696,0.171,0.1741,0.1745,0.1764,0.1767,0.1763,0.1807,0.1809,0.1794,0.1778,0.1814,0.1847,0.1857,0.1738,0.1737,0.1736,0.1736,0,0,0.1497,0.156,0.1564,0.1588,0.1633,0.1652,0.1685,0.1721,0.1747,0.1762,0.1796,0.1811,0.1818,0.1824,0.1827,0.1849,0.1907,0.1841,0.1842,0.1877,0.1984,0.2031,0.2045,0.1905,0.1906,0.1907,0.1996,0,0.1504,0.1552,0.1583,0.1623,0.1649,0.1682,0.1714,0.1748,0.1775,0.1811,0.1827,0.1857,0.184,0.1857,0.1878,0.1901,0.1931,0.1885,0.1943,0.1945,0.1983,0.2057,0.2064,0.2147,0.2004,0.2006,0.2007,0,0.1511,0.1546,0.1587,0.1646,0.166,0.1684,0.1743,0.1777,0.1832,0.1854,0.189,0.1906,0.1951,0.1924,0.1989,0.1963,0.1979,0.199,0.1993,0.2028,0.2009,0.2086,0.2169,0.2157,0.2021,0.202,0.2019,0,0.1485,0.1545,0.1579,0.1599,0.1666,0.169,0.1726,0.1785,0.1824,0.1888,0.1923,0.197,0.2007,0.2031,0.2066,0.2033,0.2137,0.2091,0.2149,0.2152,0.2165,0.2167,0.2244,0.2137,0.2137,0.2136,0.2136,0,0.1482,0.1506,0.1569,0.1589,0.1626,0.1681,0.1728,0.1773,0.1847,0.1899,0.1944,0.2003,0.2036,0.2099,0.2104,0.218,0.2175,0.2178,0.2188,0.2181,0.2183,0.2177,0.2161,0.214,0.2139,0.2138,0.2138,0,0.1444,0.149,0.1527,0.1596,0.1615,0.1642,0.1722,0.1761,0.1839,0.1913,0.1939,0.2046,0.2143,0.2185,0.2248,0.2249,0.2271,0.2317,0.2315,0.2324,0.235,0.2336,0.2332,0.2235,0.2393,0.2395,0.2397,0,0.1428,0.1445,0.1514,0.1536,0.1565,0.1615,0.1649,0.1738,0.179,0.1941,0.1978,0.2111,0.2203,0.2342,0.2394,0.2455,0.2354,0.2468,0.24,0.2386,0.2376,0.226,0.2166,0.2434,0.2435,0.2437,0.2438,0,0.1393,0.1417,0.1452,0.1498,0.1534,0.1576,0.1641,0.1681,0.1798,0.1879,0.2018,0.2115,0.2303,0.2411,0.2517,0.2536,0.2406,0.2499,0.2483,0.243,0.231,0.2209,0.234,0.2451,0.2449,0.2448,0.2448,0.2447,0.1354,0.1367,0.1417,0.1454,0.1495,0.1536,0.1552,0.1642,0.1728,0.1853,0.1995,0.2142,0.2381,0.2559,0.2561,0.2624,0.2512,0.2579,0.2569,0.2456,0.2347,0.2518,0.2637,0.2637,0.2637,0.2637,0.2637,0,0.1303,0.1335,0.1371,0.1413,0.1431,0.1477,0.154,0.1555,0.1632,0.1816,0.1944,0.2249,0.2421,0.2571,0.2754,0.2712,0.2533,0.2655,0.2489,0.2388,0.257,0.2558,0.2667,0.2667,0.2667,0.2667,0.2667,0.2667,0.1279,0.1297,0.1322,0.1339,0.1365,0.1364,0.1385,0.1434,0.1552,0.1753,0.1954,0.213,0.2525,0.2875,0.2931,0.2839,0.2573,0.2548,0.2426,0.2595,0.2586,0.2576,0.2561,0.2669,0.2669,0.2154,0.2151,0.2149]},{"header":{"parameterUnit":"m.s-1","parameterCategory":2,"la1":30.2991,"la2":30.254,"lo1":-89.0895,"lo2":-89.0444,"dy":0.0017,"dx":0.0017,"nx":28,"ny":28,"refTime":"2023-11-13T03:00:00:Z","depth":"0","parameterNumber":3,"parameterNumberName":"V-component_of_CURRENTS"},"data":[0,0,0,0,0,0,0,0,0,0,0,0,0,0,0,0,0,0,0,0,0,0,0,0,0,0,0,0,0,0,0,0,0,0,0,0,0,0,0,0,0,0,0,0,0,0,0,0,0,0,0,0,0,0,0,0,0,0,-0.0511,-0.0511,0,-0.0561,-0.0562,-0.0562,-0.0592,-0.0592,-0.0593,-0.0593,-0.0654,-0.0655,-0.0657,0,0,0,0,0,0,0,0,0,0,0,0,0,-0.0468,-0.0469,-0.0511,-0.0511,-0.0512,-0.0561,-0.0562,-0.0562,-0.0592,-0.0592,-0.0593,-0.0593,-0.0653,-0.0655,-0.0657,0,0,0,0,0,0,0,0,0,0,0,0,0,-0.0499,-0.0469,-0.051,-0.0533,-0.0536,-0.0561,-0.0562,-0.0563,-0.0592,-0.0592,-0.0593,-0.0593,-0.0653,-0.0655,-0.0657,-0.0664,0,0,-0.0664,-0.0664,0,0,0,0,0,0,0,0,-0.0497,-0.05,-0.0529,-0.0532,-0.0535,-0.0571,-0.0569,-0.0597,-0.0592,-0.057,-0.0593,-0.0593,-0.0627,-0.0632,-0.0639,-0.0667,-0.067,-0.0664,-0.0665,-0.0666,-0.0667,0,0,0,0,0,0,0,-0.0495,-0.0498,-0.053,-0.053,-0.0533,-0.0551,-0.0555,-0.0575,-0.0596,-0.0572,-0.0575,-0.0581,-0.0629,-0.0637,-0.0641,-0.0671,-0.0664,-0.0666,-0.0667,-0.0668,-0.0713,-0.0713,0,0,0,0,0,0,-0.0488,-0.0496,-0.0528,-0.0532,-0.0517,-0.0551,-0.0556,-0.0559,-0.0596,-0.0602,-0.0581,-0.0582,-0.0633,-0.0638,-0.0643,-0.0651,-0.0666,-0.0668,-0.0669,-0.0713,-0.0713,-0.0713,0,0,0,0,0,0,-0.0487,-0.049,-0.0526,-0.0516,-0.0522,-0.0551,-0.0554,-0.056,-0.0569,-0.0602,-0.0609,-0.0585,-0.0634,-0.064,-0.0661,-0.0654,-0.0669,-0.0671,-0.0713,-0.0713,-0.0713,-0.0669,0,0,0,0,0,0,-0.0485,-0.0489,-0.0487,-0.0515,-0.0522,-0.0538,-0.0554,-0.056,-0.0573,-0.0576,-0.0608,-0.0614,-0.0635,-0.0657,-0.0663,-0.0657,-0.0673,-0.0713,-0.0713,-0.0713,-0.067,-0.0667,-0.0664,0,0,0,0,0,-0.0484,-0.0478,-0.0487,-0.0491,-0.0519,-0.0538,-0.0543,-0.0565,-0.0573,-0.0575,-0.0598,-0.0613,-0.066,-0.0659,-0.0665,-0.066,-0.0713,-0.0713,-0.0713,-0.0671,-0.0668,-0.0664,0,0,0,0,0,0,-0.0457,-0.0481,-0.0492,-0.0493,-0.0513,-0.0543,-0.0546,-0.0562,-0.0582,-0.0583,-0.0614,-0.0621,-0.0638,-0.0655,-0.0654,-0.0673,-0.0688,-0.0689,-0.0655,-0.0651,-0.0649,-0.0636,-0.0674,0,0,0,0,0,-0.045,-0.0453,-0.0481,-0.0482,-0.049,-0.0517,-0.0527,-0.0542,-0.0565,-0.0574,-0.0597,-0.062,-0.0641,-0.0651,-0.0674,-0.0683,-0.0705,-0.0684,-0.0681,-0.0678,-0.0673,-0.0702,-0.07,-0.0712,-0.0712,-0.0712,0,0,-0.0441,-0.0454,-0.0456,-0.0476,-0.0492,-0.0498,-0.0524,-0.0535,-0.0539,-0.0577,-0.0586,-0.0613,-0.0643,-0.0655,-0.0663,-0.0669,-0.0687,-0.0678,-0.0675,-0.0671,-0.0701,-0.07,-0.0699,-0.0712,-0.0712,-0.0712,0,0,-0.0422,-0.0434,-0.0431,-0.0445,-0.0466,-0.0482,-0.0484,-0.0512,-0.0522,-0.0537,-0.0565,-0.0587,-0.0617,-0.0637,-0.0651,-0.0645,-0.0673,-0.0651,-0.0622,-0.065,-0.0649,-0.0649,-0.0674,-0.0676,-0.0646,-0.0646,-0.0645,0,-0.0408,-0.0409,-0.0433,-0.0433,-0.0439,-0.0472,-0.0468,-0.0483,-0.0514,-0.052,-0.0534,-0.058,-0.0607,-0.0623,-0.0621,-0.0638,-0.0657,-0.0632,-0.0645,-0.0645,-0.0646,-0.0672,-0.0675,-0.0643,-0.0644,-0.0644,-0.0644,0,-0.0391,-0.0391,-0.0389,-0.0398,-0.0408,-0.041,-0.0434,-0.0443,-0.046,-0.0479,-0.05,-0.0539,-0.0566,-0.0577,-0.0598,-0.061,-0.0625,-0.064,-0.0652,-0.0642,-0.067,-0.0674,-0.064,-0.0641,-0.0642,-0.0642,0,0,-0.0359,-0.0373,-0.0371,-0.0367,-0.0389,-0.0391,-0.0396,-0.041,-0.0408,-0.0441,-0.0445,-0.0486,-0.051,-0.0527,-0.0558,-0.0579,-0.0601,-0.0604,-0.0607,-0.0624,-0.066,-0.0664,-0.0669,-0.0618,-0.0619,-0.0619,-0.0679,0,-0.0336,-0.0325,-0.034,-0.0326,-0.0322,-0.0347,-0.0345,-0.0362,-0.0382,-0.0393,-0.0435,-0.0453,-0.049,-0.05,-0.0529,-0.0583,-0.0609,-0.0583,-0.0672,-0.0674,-0.0675,-0.0673,-0.0692,-0.0747,-0.0683,-0.0684,-0.0684,0,-0.0313,-0.0309,-0.0291,-0.0287,-0.0286,-0.0282,-0.0284,-0.0288,-0.0316,-0.0332,-0.0361,-0.0396,-0.0435,-0.0467,-0.0552,-0.0533,-0.0591,-0.0635,-0.0639,-0.0659,-0.0685,-0.0748,-0.0756,-0.0932,-0.069,-0.069,-0.0689,0,-0.0279,-0.0272,-0.0254,-0.0254,-0.0256,-0.0249,-0.0251,-0.027,-0.0263,-0.0295,-0.0292,-0.0353,-0.0374,-0.0455,-0.0542,-0.0551,-0.0633,-0.0661,-0.0721,-0.0722,-0.0764,-0.0768,-0.0949,-0.0723,-0.0723,-0.0723,-0.0722,0,-0.0249,-0.0232,-0.0235,-0.0225,-0.0196,-0.0213,-0.0188,-0.0202,-0.021,-0.0189,-0.0256,-0.0246,-0.037,-0.043,-0.0525,-0.0626,-0.0624,-0.0714,-0.0737,-0.0749,-0.0751,-0.0926,-0.1018,-0.0725,-0.0724,-0.0724,-0.0723,0,-0.0212,-0.0217,-0.0192,-0.0185,-0.0179,-0.0159,-0.014,-0.012,-0.0139,-0.0113,-0.0118,-0.017,-0.0246,-0.037,-0.0498,-0.0593,-0.0804,-0.0735,-0.0738,-0.0759,-0.0982,-0.1069,-0.1272,-0.1359,-0.0821,-0.0822,-0.0822,0,-0.0191,-0.0176,-0.0156,-0.0134,-0.0127,-0.0101,-0.0076,-0.0084,-0.0055,-0.0052,-0.0026,-0.0091,-0.011,-0.0304,-0.0493,-0.0669,-0.0826,-0.0807,-0.083,-0.0998,-0.1112,-0.1189,-0.1254,-0.0875,-0.0876,-0.0876,-0.0877,0,-0.0146,-0.0141,-0.012,-0.0079,-0.0046,-0.0006,0.0029,0.0066,0.0071,0.01,0.0139,0.0125,-0.0065,-0.0243,-0.0496,-0.0633,-0.0956,-0.0824,-0.1008,-0.1175,-0.1263,-0.1355,-0.0833,-0.0882,-0.0882,-0.0881,-0.0881,-0.0881,-0.0107,-0.0083,-0.0056,-0.0013,0.0027,0.009,0.0136,0.0189,0.0253,0.0312,0.0282,0.0286,-0.0018,-0.036,-0.0579,-0.101,-0.1004,-0.1138,-0.1231,-0.1294,-0.1383,-0.0863,-0.0928,-0.0927,-0.0927,-0.0927,-0.0927,0,-0.0054,-0.0032,0.0009,0.0062,0.0117,0.0127,0.0211,0.0269,0.0367,0.0416,0.0453,0.0295,-0.0079,-0.0476,-0.1034,-0.1349,-0.1491,-0.1539,-0.1678,-0.1724,-0.1275,-0.1281,-0.1413,-0.1412,-0.1412,-0.1412,-0.1412,-0.1412,-0.0023,0.0025,0.0041,0.0133,0.0174,0.0258,0.0314,0.0405,0.046,0.0524,0.0515,0.0474,0.0144,-0.0861,-0.1618,-0.1792,-0.2047,-0.2094,-0.2213,-0.1932,-0.1902,-0.1874,-0.1903,-0.2163,-0.2164,-0.2638,-0.2643,-0.2646]}],[{"header":{"parameterUnit":"m.s-1","parameterCategory":2,"la1":30.2991,"la2":30.254,"lo1":-89.0895,"lo2":-89.0444,"dy":0.0017,"dx":0.0017,"nx":28,"ny":28,"refTime":"2023-11-13T03:00:00:Z","depth":"2","parameterNumber":2,"parameterNumberName":"U-component_of_CURRENTS"},"data":[0,0,0,0,0,0,0,0,0,0,0,0,0,0,0,0,0,0,0,0,0,0,0,0,0,0,0,0,0,0,0,0,0,0,0,0,0,0,0,0,0,0,0,0,0,0,0,0,0,0,0,0,0,0,0,0,0,0,0.1612,0.1613,0,0.1638,0.1638,0.1638,0.1642,0.1642,0.1642,0.1642,0.1636,0.1636,0.1636,0,0,0,0,0,0,0,0,0,0,0,0,0,0.1549,0.155,0.1612,0.1613,0.1613,0.1638,0.1638,0.1638,0.1642,0.1642,0.1642,0.1642,0.1636,0.1636,0.1636,0,0,0,0,0,0,0,0,0,0,0,0,0,0.1574,0.1551,0.1612,0.162,0.1621,0.1638,0.1638,0.1638,0.1642,0.1642,0.1642,0.1642,0.1636,0.1636,0.1636,0.1636,0,0,0.1636,0.1635,0,0,0,0,0,0,0,0,0.1572,0.1576,0.1618,0.1619,0.1621,0.1638,0.1614,0.1637,0.1642,0.1631,0.1642,0.1642,0.1636,0.1636,0.1638,0.1636,0.1635,0.1636,0.1635,0.1635,0.1635,0,0,0,0,0,0,0,0.1571,0.1575,0.162,0.1619,0.162,0.1616,0.1619,0.1618,0.1631,0.1632,0.1633,0.164,0.1636,0.1638,0.1638,0.1635,0.1636,0.1635,0.1635,0.1635,0.1663,0.1664,0,0,0,0,0,0,0.1573,0.1573,0.1619,0.1621,0.1598,0.1618,0.1621,0.1631,0.1632,0.1633,0.164,0.164,0.1638,0.1638,0.1637,0.1665,0.1635,0.1635,0.1635,0.1662,0.1663,0.1664,0,0,0,0,0,0,0.1572,0.1577,0.1618,0.1599,0.1604,0.1619,0.163,0.1631,0.1638,0.1638,0.1638,0.1645,0.1638,0.1638,0.1647,0.1664,0.1635,0.1635,0.1661,0.1662,0.1663,0.1702,0,0,0,0,0,0,0.157,0.1577,0.1582,0.16,0.1606,0.1635,0.163,0.1632,0.1643,0.1643,0.1643,0.1642,0.1638,0.1647,0.1646,0.1663,0.1635,0.166,0.1662,0.1663,0.17,0.1705,0.1709,0,0,0,0,0,0.1568,0.1577,0.1582,0.1588,0.1613,0.1636,0.1639,0.1647,0.1643,0.1651,0.1652,0.1642,0.1657,0.1647,0.1647,0.1663,0.1659,0.1661,0.1663,0.1698,0.1704,0.1709,0,0,0,0,0,0,0.1548,0.1579,0.1585,0.1602,0.1621,0.1638,0.1646,0.165,0.1657,0.1655,0.165,0.165,0.1665,0.1659,0.1649,0.1677,0.1657,0.1659,0.1684,0.1689,0.1694,0.1698,0.1635,0,0,0,0,0,0.1548,0.1566,0.1591,0.1605,0.1616,0.163,0.1639,0.1647,0.1657,0.166,0.1661,0.1663,0.1672,0.1676,0.1679,0.1692,0.17,0.1703,0.1707,0.1711,0.1714,0.1744,0.1752,0.167,0.167,0.167,0,0,0.1543,0.1564,0.1572,0.1603,0.1617,0.1637,0.1635,0.1654,0.167,0.1658,0.1675,0.1677,0.1679,0.1697,0.1703,0.1694,0.1742,0.1713,0.1717,0.1718,0.1747,0.1755,0.1762,0.1671,0.1671,0.1671,0,0,0.1546,0.1563,0.158,0.16,0.1629,0.1642,0.1649,0.167,0.1679,0.1696,0.1696,0.1709,0.1715,0.1727,0.1732,0.1761,0.1763,0.1763,0.1789,0.1819,0.1826,0.1832,0.1866,0.1875,0.1766,0.1766,0.1766,0,0.1536,0.1566,0.1587,0.1611,0.1629,0.1646,0.1667,0.1681,0.1701,0.1714,0.1705,0.1734,0.1731,0.1764,0.1776,0.1772,0.1791,0.1769,0.1825,0.1831,0.1837,0.187,0.1879,0.1768,0.1768,0.1768,0.1768,0,0.1556,0.1579,0.1592,0.1631,0.1652,0.1674,0.1701,0.1719,0.1728,0.1742,0.1773,0.1777,0.1797,0.18,0.1796,0.184,0.1842,0.1827,0.1812,0.1848,0.188,0.1889,0.1772,0.1771,0.177,0.177,0,0,0.1531,0.1594,0.1597,0.1621,0.1665,0.1684,0.1718,0.1753,0.178,0.1794,0.1829,0.1844,0.1851,0.1857,0.186,0.1882,0.1939,0.1875,0.1875,0.1909,0.2016,0.2056,0.2069,0.1938,0.1939,0.1941,0.2027,0,0.1538,0.1586,0.1616,0.1657,0.1682,0.1715,0.1747,0.1781,0.1808,0.1845,0.186,0.189,0.1873,0.189,0.1911,0.1934,0.1963,0.1918,0.1975,0.1977,0.2009,0.2081,0.1907,0.1972,0.2035,0.2037,0.2038,0,0.1544,0.158,0.1621,0.1679,0.1693,0.1718,0.1777,0.1811,0.1866,0.1888,0.1924,0.194,0.1985,0.1957,0.2021,0.1997,0.2011,0.2021,0.2025,0.2053,0.2034,0.1944,0.1986,0.2053,0.2051,0.205,0.2049,0,0.1519,0.1579,0.1613,0.1633,0.17,0.1723,0.176,0.1819,0.1858,0.1923,0.1957,0.2004,0.2041,0.2064,0.2097,0.2065,0.2167,0.2123,0.2173,0.2175,0.2034,0.2023,0.2167,0.2167,0.2167,0.2166,0.2166,0,0.1516,0.154,0.1603,0.1623,0.166,0.1715,0.1762,0.1807,0.1881,0.1933,0.1979,0.2036,0.207,0.2131,0.2135,0.2206,0.2205,0.2201,0.221,0.2045,0.2035,0.2099,0.209,0.217,0.2169,0.2168,0.2168,0,0.1479,0.1524,0.1562,0.163,0.1649,0.1676,0.1756,0.1796,0.1873,0.1947,0.1973,0.2079,0.2174,0.2214,0.2275,0.2273,0.2318,0.2336,0.2153,0.214,0.2291,0.2283,0.2399,0.2401,0.2403,0.2405,0.2406,0,0.1463,0.148,0.1548,0.157,0.1598,0.1648,0.1683,0.1772,0.1824,0.1974,0.2011,0.2142,0.2226,0.2358,0.2377,0.2424,0.2407,0.2287,0.2195,0.2323,0.2319,0.2308,0.2298,0.2015,0.2013,0.2012,0.201,0,0.1427,0.1451,0.1486,0.1532,0.1568,0.161,0.1675,0.1715,0.1832,0.1909,0.2044,0.2134,0.2287,0.229,0.2375,0.2362,0.2267,0.2262,0.2441,0.2003,0.1974,0.1966,0.1966,0.1996,0.1998,0.1999,0.2,0.2,0.1389,0.1402,0.1451,0.1487,0.1528,0.1569,0.1585,0.1668,0.175,0.1852,0.1991,0.2067,0.2144,0.2207,0.2178,0.2153,0.2293,0.2168,0.2166,0.2168,0.2128,0.2106,0.2146,0.2148,0.215,0.2151,0.2153,0,0.1339,0.1368,0.1405,0.1446,0.1464,0.151,0.1573,0.1585,0.1648,0.1768,0.1866,0.1808,0.1853,0.1912,0.1877,0.1924,0.1829,0.1832,0.1671,0.169,0.1706,0.1634,0.1525,0.1522,0.152,0.1518,0,0,0.1315,0.1332,0.1358,0.1373,0.1398,0.1401,0.1421,0.1458,0.1529,0.1576,0.1606,0.1756,0.1878,0.166,0.167,0.1589,0.1606,0.1529,0.2044,0.1874,0.1885,0.193,0.1849,0,0,0,0,0]},{"header":{"parameterUnit":"m.s-1","parameterCategory":2,"la1":30.2991,"la2":30.254,"lo1":-89.0895,"lo2":-89.0444,"dy":0.0017,"dx":0.0017,"nx":28,"ny":28,"refTime":"2023-11-13T03:00:00:Z","depth":"2","parameterNumber":3,"parameterNumberName":"V-component_of_CURRENTS"},"data":[0,0,0,0,0,0,0,0,0,0,0,0,0,0,0,0,0,0,0,0,0,0,0,0,0,0,0,0,0,0,0,0,0,0,0,0,0,0,0,0,0,0,0,0,0,0,0,0,0,0,0,0,0,0,0,0,0,0,-0.0423,-0.0423,0,-0.0471,-0.0472,-0.0472,-0.0504,-0.0504,-0.0504,-0.0504,-0.0565,-0.0567,-0.0568,0,0,0,0,0,0,0,0,0,0,0,0,0,-0.0383,-0.0383,-0.0423,-0.0424,-0.0424,-0.0471,-0.0472,-0.0473,-0.0504,-0.0504,-0.0504,-0.0505,-0.0565,-0.0567,-0.0568,0,0,0,0,0,0,0,0,0,0,0,0,0,-0.0412,-0.0383,-0.0423,-0.0446,-0.0449,-0.0471,-0.0472,-0.0473,-0.0504,-0.0504,-0.0504,-0.0505,-0.0564,-0.0566,-0.0568,-0.0574,0,0,-0.0575,-0.0576,0,0,0,0,0,0,0,0,-0.041,-0.0413,-0.0442,-0.0444,-0.0447,-0.0483,-0.048,-0.0507,-0.0503,-0.0482,-0.0504,-0.0505,-0.0539,-0.0543,-0.055,-0.0576,-0.0579,-0.0575,-0.0576,-0.0577,-0.0578,0,0,0,0,0,0,0,-0.0408,-0.0412,-0.0441,-0.0443,-0.0446,-0.0463,-0.0467,-0.0486,-0.0507,-0.0484,-0.0486,-0.0493,-0.0541,-0.0548,-0.0552,-0.058,-0.0575,-0.0577,-0.0578,-0.0579,-0.0622,-0.0622,0,0,0,0,0,0,-0.0402,-0.0409,-0.044,-0.0443,-0.043,-0.0463,-0.0468,-0.047,-0.0507,-0.0513,-0.0492,-0.0494,-0.0544,-0.055,-0.0554,-0.0563,-0.0577,-0.0579,-0.058,-0.0622,-0.0622,-0.0622,0,0,0,0,0,0,-0.0401,-0.0404,-0.0438,-0.0428,-0.0434,-0.0463,-0.0466,-0.0471,-0.0482,-0.0514,-0.052,-0.0498,-0.0545,-0.0551,-0.0572,-0.0566,-0.058,-0.0582,-0.0622,-0.0622,-0.0622,-0.058,0,0,0,0,0,0,-0.0399,-0.0403,-0.0401,-0.0427,-0.0434,-0.0449,-0.0466,-0.0472,-0.0485,-0.0488,-0.0521,-0.0527,-0.0546,-0.0568,-0.0574,-0.0569,-0.0584,-0.0623,-0.0622,-0.0622,-0.0581,-0.0578,-0.0576,0,0,0,0,0,-0.0398,-0.0392,-0.0401,-0.0405,-0.0431,-0.0449,-0.0454,-0.0476,-0.0485,-0.0487,-0.051,-0.0526,-0.0571,-0.057,-0.0576,-0.0572,-0.0623,-0.0622,-0.0622,-0.0583,-0.0579,-0.0576,0,0,0,0,0,0,-0.0373,-0.0396,-0.0406,-0.0407,-0.0426,-0.0455,-0.0458,-0.0474,-0.0494,-0.0496,-0.0526,-0.0533,-0.055,-0.0567,-0.0565,-0.0584,-0.0599,-0.06,-0.0567,-0.0563,-0.0561,-0.0548,-0.0585,0,0,0,0,0,-0.0366,-0.0369,-0.0395,-0.0396,-0.0404,-0.0431,-0.0441,-0.0455,-0.0477,-0.0486,-0.0509,-0.0533,-0.0553,-0.0563,-0.0584,-0.0593,-0.0614,-0.0595,-0.0592,-0.0589,-0.0584,-0.0612,-0.0611,-0.0621,-0.0621,-0.0621,0,0,-0.0358,-0.037,-0.0372,-0.0391,-0.0407,-0.0411,-0.0437,-0.0449,-0.0452,-0.049,-0.0499,-0.0526,-0.0555,-0.0566,-0.0575,-0.0579,-0.0598,-0.0589,-0.0586,-0.0582,-0.0612,-0.0611,-0.061,-0.0621,-0.0621,-0.0621,0,0,-0.034,-0.0352,-0.0348,-0.0361,-0.0382,-0.0397,-0.0399,-0.0426,-0.0437,-0.0452,-0.0479,-0.0501,-0.053,-0.0549,-0.0562,-0.0557,-0.0584,-0.0563,-0.0535,-0.0563,-0.0562,-0.0561,-0.0586,-0.0589,-0.0558,-0.0558,-0.0558,0,-0.0327,-0.0327,-0.035,-0.0349,-0.0355,-0.0387,-0.0383,-0.0398,-0.0428,-0.0434,-0.0449,-0.0494,-0.0521,-0.0535,-0.0534,-0.055,-0.0569,-0.0544,-0.0558,-0.0558,-0.0559,-0.0584,-0.0587,-0.0556,-0.0556,-0.0556,-0.0557,0,-0.0309,-0.0309,-0.0307,-0.0315,-0.0324,-0.0326,-0.0349,-0.0358,-0.0376,-0.0394,-0.0415,-0.0453,-0.048,-0.0492,-0.0511,-0.0524,-0.0538,-0.0553,-0.0564,-0.0555,-0.0583,-0.0587,-0.0553,-0.0554,-0.0554,-0.0555,0,0,-0.0279,-0.0291,-0.029,-0.0285,-0.0305,-0.0307,-0.0311,-0.0323,-0.0322,-0.0356,-0.0359,-0.04,-0.0425,-0.0442,-0.0471,-0.0493,-0.0515,-0.0518,-0.0521,-0.0538,-0.0574,-0.0579,-0.0584,-0.0533,-0.0533,-0.0533,-0.0592,0,-0.0257,-0.0245,-0.0258,-0.0243,-0.0238,-0.0262,-0.026,-0.0276,-0.0296,-0.0307,-0.0349,-0.0367,-0.0404,-0.0416,-0.0444,-0.0498,-0.0523,-0.0498,-0.0585,-0.0587,-0.0589,-0.0588,-0.0538,-0.0586,-0.0596,-0.0597,-0.0598,0,-0.0234,-0.0229,-0.0211,-0.0204,-0.0203,-0.0198,-0.0199,-0.0203,-0.023,-0.0246,-0.0276,-0.0311,-0.0349,-0.0382,-0.0466,-0.0448,-0.0506,-0.0549,-0.0553,-0.0573,-0.0599,-0.0599,-0.0593,-0.0604,-0.0604,-0.0603,-0.0603,0,-0.0202,-0.0193,-0.0174,-0.0174,-0.0174,-0.0166,-0.0168,-0.0185,-0.0178,-0.021,-0.0208,-0.0268,-0.029,-0.037,-0.0458,-0.0466,-0.0548,-0.0574,-0.0635,-0.0636,-0.0619,-0.0618,-0.0636,-0.0636,-0.0635,-0.0635,-0.0635,0,-0.0173,-0.0156,-0.0157,-0.0146,-0.0117,-0.0133,-0.0107,-0.012,-0.0128,-0.0106,-0.0174,-0.0164,-0.0287,-0.0345,-0.044,-0.0541,-0.0539,-0.0628,-0.0651,-0.0603,-0.06,-0.0635,-0.0634,-0.0637,-0.0637,-0.0637,-0.0636,0,-0.0138,-0.0142,-0.0116,-0.0108,-0.0101,-0.0082,-0.0062,-0.0041,-0.006,-0.0035,-0.0039,-0.009,-0.0165,-0.0287,-0.0415,-0.0508,-0.0612,-0.065,-0.0584,-0.0597,-0.0691,-0.0687,-0.0734,-0.0735,-0.0736,-0.0736,-0.0736,0,-0.0118,-0.0104,-0.0083,-0.006,-0.0054,-0.0028,-0.0002,-0.0008,0.0021,0.0025,0.0051,-0.0013,-0.0029,-0.0222,-0.0395,-0.0565,-0.0602,-0.065,-0.0664,-0.0684,-0.0701,-0.0696,-0.0692,-0.0627,-0.0627,-0.0626,-0.0626,0,-0.0075,-0.0071,-0.0049,-0.0008,0.0024,0.0065,0.01,0.0137,0.0145,0.0177,0.0216,0.0203,0.0027,-0.0118,-0.0363,-0.048,-0.0623,-0.0648,-0.0683,-0.0607,-0.0587,-0.0602,-0.0601,-0.0622,-0.0622,-0.0623,-0.0623,-0.0623,-0.0039,-0.0016,0.0011,0.0054,0.0094,0.0157,0.0203,0.0271,0.034,0.0413,0.0369,0.0377,0.017,-0.0104,-0.0329,-0.0577,-0.0586,-0.0669,-0.0669,-0.0669,-0.0644,-0.0625,-0.0663,-0.0663,-0.0664,-0.0664,-0.0665,0,0.002,0.0033,0.0074,0.0126,0.0191,0.0191,0.0277,0.0352,0.0471,0.053,0.0577,0.0433,0.0247,-0.0007,-0.0358,-0.0581,-0.0596,-0.0657,-0.0619,-0.0621,-0.0623,-0.0595,-0.0602,-0.0602,-0.0603,-0.0603,0,0,0.0051,0.0103,0.0119,0.0214,0.0247,0.0344,0.04,0.0519,0.0592,0.0698,0.0708,0.0674,0.0345,0.0115,-0.0189,-0.0399,-0.0465,-0.0442,-0.0467,-0.0389,-0.0389,-0.0603,-0.0558,0,0,0,0,0]}],[{"header":{"parameterUnit":"m.s-1","parameterCategory":2,"la1":30.2991,"la2":30.254,"lo1":-89.0895,"lo2":-89.0444,"dy":0.0017,"dx":0.0017,"nx":28,"ny":28,"refTime":"2023-11-13T03:00:00:Z","depth":"4","parameterNumber":2,"parameterNumberName":"U-component_of_CURRENTS"},"data":[0,0,0,0,0,0,0,0,0,0,0,0,0,0,0,0,0,0,0,0,0,0,0,0,0,0,0,0,0,0,0,0,0,0,0,0,0,0,0,0,0,0,0,0,0,0,0,0,0,0,0,0,0,0,0,0,0,0,0.1137,0.1138,0,0.1184,0.1185,0.1185,0.123,0.1231,0.1232,0.1232,0.1293,0.1294,0.1294,0,0,0,0,0,0,0,0,0,0,0,0,0,0.107,0.1071,0.1137,0.1138,0.1138,0.1184,0.1185,0.1185,0.123,0.1231,0.1232,0.1233,0.1292,0.1293,0.1295,0,0,0,0,0,0,0,0,0,0,0,0,0,0.1105,0.1072,0.1137,0.1167,0.1171,0.1184,0.1185,0.1186,0.123,0.1231,0.1232,0.1233,0.1292,0.1293,0.1295,0.1282,0,0,0.1299,0.13,0,0,0,0,0,0,0,0,0.1103,0.1107,0.1162,0.1165,0.1169,0.1204,0.1184,0.1219,0.123,0.1206,0.1232,0.1234,0.1264,0.1268,0.1272,0.1285,0.1288,0.1299,0.13,0.1301,0.1301,0,0,0,0,0,0,0,0.1101,0.1106,0.1154,0.1163,0.1167,0.1174,0.118,0.119,0.1228,0.1208,0.1212,0.1219,0.1266,0.1271,0.1274,0.1288,0.1299,0.13,0.1301,0.1302,0.1378,0.1379,0,0,0,0,0,0,0.1098,0.1103,0.1153,0.1156,0.114,0.1174,0.1181,0.119,0.1227,0.1234,0.1218,0.1221,0.1268,0.1272,0.1276,0.1343,0.1301,0.1302,0.1303,0.1377,0.1378,0.1379,0,0,0,0,0,0,0.1096,0.1102,0.1151,0.1132,0.1139,0.1175,0.1185,0.1191,0.1222,0.1235,0.1242,0.1247,0.1269,0.1274,0.1312,0.1343,0.1303,0.1304,0.1375,0.1377,0.1379,0.1425,0,0,0,0,0,0,0.1094,0.1101,0.1117,0.1132,0.114,0.1177,0.1184,0.1191,0.1224,0.1229,0.1261,0.1266,0.127,0.131,0.1314,0.1344,0.1305,0.1374,0.1376,0.1378,0.1422,0.1428,0.1433,0,0,0,0,0,0.1091,0.1105,0.1117,0.1124,0.1157,0.1178,0.1183,0.121,0.1225,0.1242,0.1267,0.1267,0.1327,0.1312,0.1316,0.1347,0.1373,0.1376,0.1378,0.1419,0.1427,0.1433,0,0,0,0,0,0,0.1086,0.1112,0.1125,0.1147,0.117,0.1186,0.1208,0.1223,0.1255,0.1268,0.1279,0.1286,0.133,0.1331,0.1314,0.1376,0.1351,0.1354,0.1381,0.1388,0.1393,0.1391,0.1306,0,0,0,0,0,0.1091,0.1111,0.1133,0.1155,0.1168,0.1192,0.1208,0.1227,0.1251,0.1268,0.1291,0.1316,0.1338,0.1358,0.1373,0.1406,0.1408,0.1429,0.1435,0.144,0.144,0.1468,0.1476,0.1388,0.1388,0.1388,0,0,0.1094,0.1113,0.1125,0.1156,0.1177,0.1198,0.1205,0.1238,0.1263,0.1268,0.1318,0.1336,0.135,0.1389,0.1409,0.1399,0.1468,0.1443,0.1447,0.1445,0.1472,0.148,0.1488,0.139,0.139,0.1389,0,0,0.1104,0.113,0.1148,0.117,0.1206,0.122,0.1234,0.1266,0.1293,0.1333,0.1346,0.1381,0.1418,0.1435,0.1446,0.1491,0.1494,0.1505,0.1537,0.1565,0.1572,0.1578,0.16,0.1608,0.1512,0.1512,0.1512,0,0.111,0.1134,0.1157,0.118,0.1202,0.1232,0.1254,0.1281,0.1324,0.1349,0.1358,0.1422,0.1436,0.148,0.1502,0.1504,0.1521,0.151,0.1572,0.1578,0.1584,0.1605,0.1613,0.1514,0.1514,0.1514,0.1513,0,0.1124,0.1154,0.1169,0.1207,0.1232,0.126,0.1295,0.1332,0.1367,0.1392,0.1451,0.1473,0.1513,0.1526,0.1531,0.1585,0.1585,0.1573,0.1553,0.1596,0.1615,0.1623,0.1518,0.1517,0.1516,0.1516,0,0,0.111,0.1167,0.1176,0.12,0.1251,0.127,0.132,0.1367,0.1405,0.1453,0.1501,0.1547,0.1569,0.1583,0.1599,0.1625,0.1685,0.1627,0.1627,0.1646,0.1754,0.1671,0.1671,0.1692,0.1694,0.1695,0.1754,0,0.1117,0.1159,0.1189,0.1235,0.1258,0.1304,0.1346,0.1396,0.1442,0.1497,0.1535,0.1587,0.1588,0.1622,0.165,0.1677,0.1707,0.167,0.1712,0.1713,0.1631,0.1677,0.1699,0.1759,0.1761,0.1762,0.1763,0,0.1117,0.1148,0.1191,0.1252,0.1268,0.1305,0.1378,0.1421,0.1499,0.1538,0.1595,0.1629,0.1691,0.1679,0.1749,0.1732,0.1751,0.1762,0.1765,0.1673,0.1643,0.1706,0.1777,0.1776,0.1775,0.1774,0.1773,0,0.1085,0.1148,0.1184,0.1205,0.1278,0.1317,0.1364,0.144,0.1482,0.1575,0.1617,0.1684,0.1734,0.1768,0.1808,0.1791,0.1872,0.1845,0.1783,0.1778,0.1814,0.1806,0.1887,0.1887,0.1887,0.1887,0.1886,0,0.1069,0.1101,0.1179,0.1199,0.1251,0.1311,0.1376,0.1433,0.1515,0.1567,0.1644,0.1691,0.1763,0.1817,0.1833,0.1838,0.1897,0.1795,0.1789,0.1833,0.1827,0.182,0.1812,0.1889,0.1888,0.1888,0.1888,0,0.1025,0.1077,0.1123,0.1208,0.1238,0.1279,0.1377,0.1418,0.151,0.1581,0.1617,0.1719,0.1793,0.1849,0.191,0.1866,0.1878,0.1865,0.1924,0.1919,0.1757,0.1751,0.179,0.1787,0.1785,0.1784,0.1782,0,0.1003,0.1025,0.1117,0.1149,0.1194,0.1264,0.131,0.1406,0.1447,0.1584,0.1607,0.1721,0.178,0.1795,0.1861,0.1887,0.1867,0.1856,0.1787,0.1758,0.1749,0.1745,0.1742,0.1779,0.1778,0.1778,0.1777,0,0.0962,0.1006,0.1046,0.1111,0.1167,0.1215,0.129,0.1307,0.1419,0.1511,0.1565,0.1612,0.1693,0.1739,0.1782,0.1793,0.1849,0.1834,0.1837,0.1771,0.1745,0.1737,0.1736,0.177,0.1771,0.1772,0.1772,0,0.0935,0.0952,0.1014,0.1062,0.1126,0.1155,0.1198,0.1249,0.1299,0.1437,0.1455,0.1578,0.1675,0.1693,0.1731,0.1741,0.1708,0.164,0.1652,0.1661,0.1594,0.154,0.1502,0,0,0,0,0,0.0901,0.0917,0.096,0.1009,0.1067,0.1107,0.118,0.1223,0.1323,0.1325,0.1384,0.1453,0.1517,0.1579,0.1565,0.1685,0.172,0.1662,0.1649,0.1731,0.1739,0.1672,0,0,0,0,0,0,0.088,0.092,0.0938,0.0955,0.0979,0.1034,0.1078,0.1145,0.1145,0.1251,0.129,0.1376,0.1456,0.1516,0.1542,0.1562,0.1526,0.1737,0.1733,0.1726,0.1733,0.174,0.1674,0,0,0,0,0]},{"header":{"parameterUnit":"m.s-1","parameterCategory":2,"la1":30.2991,"la2":30.254,"lo1":-89.0895,"lo2":-89.0444,"dy":0.0017,"dx":0.0017,"nx":28,"ny":28,"refTime":"2023-11-13T03:00:00:Z","depth":"4","parameterNumber":3,"parameterNumberName":"V-component_of_CURRENTS"},"data":[0,0,0,0,0,0,0,0,0,0,0,0,0,0,0,0,0,0,0,0,0,0,0,0,0,0,0,0,0,0,0,0,0,0,0,0,0,0,0,0,0,0,0,0,0,0,0,0,0,0,0,0,0,0,0,0,0,0,0.0021,0.0021,0,-0.0017,-0.0017,-0.0018,-0.005,-0.005,-0.0051,-0.0051,-0.0116,-0.0118,-0.0119,0,0,0,0,0,0,0,0,0,0,0,0,0,0.005,0.0049,0.0021,0.0021,0.002,-0.0017,-0.0017,-0.0018,-0.005,-0.005,-0.0051,-0.0051,-0.0116,-0.0118,-0.0119,0,0,0,0,0,0,0,0,0,0,0,0,0,0.0027,0.0049,0.0021,-0.0,-0.0003,-0.0017,-0.0017,-0.0018,-0.005,-0.005,-0.0051,-0.0051,-0.0115,-0.0118,-0.012,-0.0121,0,0,-0.0126,-0.0127,0,0,0,0,0,0,0,0,0.0029,0.0026,0.0003,0.0001,-0.0002,-0.003,-0.0031,-0.0054,-0.005,-0.0032,-0.0051,-0.0052,-0.009,-0.0094,-0.0099,-0.0124,-0.0126,-0.0126,-0.0127,-0.0128,-0.0129,0,0,0,0,0,0,0,0.003,0.0028,0.0007,0.0003,-0.0,-0.0014,-0.0018,-0.0036,-0.0057,-0.0033,-0.0036,-0.004,-0.0091,-0.0097,-0.0101,-0.0127,-0.0126,-0.0128,-0.0129,-0.013,-0.0181,-0.0181,0,0,0,0,0,0,0.0036,0.0029,0.0008,0.0005,0.0012,-0.0014,-0.0018,-0.002,-0.0056,-0.0062,-0.004,-0.0042,-0.0093,-0.0098,-0.0103,-0.0122,-0.0128,-0.013,-0.0131,-0.0181,-0.0181,-0.0181,0,0,0,0,0,0,0.0037,0.0034,0.0009,0.0016,0.0012,-0.0014,-0.0015,-0.002,-0.0032,-0.0061,-0.0068,-0.0048,-0.0094,-0.01,-0.0124,-0.0124,-0.0131,-0.0133,-0.0181,-0.0181,-0.0181,-0.015,0,0,0,0,0,0,0.0038,0.0035,0.0036,0.0017,0.0012,0.0001,-0.0015,-0.002,-0.0034,-0.0037,-0.007,-0.0076,-0.0095,-0.012,-0.0126,-0.0127,-0.0135,-0.0181,-0.0181,-0.0181,-0.0151,-0.0149,-0.0147,0,0,0,0,0,0.0039,0.0045,0.0037,0.0034,0.0014,0.0001,-0.0002,-0.0023,-0.0034,-0.0036,-0.006,-0.0076,-0.0126,-0.0122,-0.0128,-0.013,-0.0181,-0.0181,-0.0181,-0.0151,-0.0149,-0.0147,0,0,0,0,0,0,0.0059,0.0041,0.0032,0.0032,0.0017,-0.0004,-0.0007,-0.0022,-0.0043,-0.0047,-0.0076,-0.0084,-0.0107,-0.0122,-0.0117,-0.0147,-0.0156,-0.0157,-0.0131,-0.0129,-0.0128,-0.0113,-0.0136,0,0,0,0,0,0.0064,0.0063,0.0043,0.0043,0.0037,0.0015,0.0007,-0.0008,-0.0028,-0.0038,-0.0062,-0.0088,-0.0111,-0.0123,-0.0145,-0.0158,-0.0176,-0.0164,-0.0163,-0.0161,-0.0154,-0.0183,-0.0183,-0.0182,-0.0182,-0.0182,0,0,0.0072,0.0063,0.0061,0.0047,0.0035,0.0032,0.0008,-0.0002,-0.0006,-0.0041,-0.0056,-0.0085,-0.0114,-0.0131,-0.0142,-0.0145,-0.0171,-0.0161,-0.016,-0.0153,-0.0183,-0.0183,-0.0183,-0.0182,-0.0182,-0.0182,0,0,0.009,0.0079,0.0084,0.0074,0.0057,0.0044,0.0041,0.0017,0.0004,-0.0014,-0.0042,-0.0069,-0.0102,-0.0122,-0.0136,-0.0138,-0.0164,-0.0148,-0.0125,-0.0154,-0.0154,-0.0154,-0.0177,-0.018,-0.0145,-0.0145,-0.0145,0,0.0101,0.0105,0.0084,0.0086,0.0083,0.0051,0.0058,0.0042,0.0012,0.0005,-0.0015,-0.0066,-0.0096,-0.0113,-0.0118,-0.0134,-0.0153,-0.0129,-0.0151,-0.0152,-0.0153,-0.0176,-0.0179,-0.0143,-0.0143,-0.0144,-0.0144,0,0.0122,0.0124,0.0127,0.0122,0.0115,0.0114,0.0091,0.008,0.0057,0.0037,0.0009,-0.0034,-0.0063,-0.008,-0.0102,-0.012,-0.0132,-0.0147,-0.0153,-0.0151,-0.0175,-0.0179,-0.0141,-0.0142,-0.0142,-0.0143,0,0,0.015,0.0145,0.0146,0.0153,0.0134,0.0135,0.0127,0.0116,0.0117,0.0073,0.0069,0.0016,-0.0013,-0.0031,-0.0065,-0.0092,-0.0122,-0.0119,-0.0122,-0.0136,-0.0182,-0.0182,-0.0187,-0.0142,-0.0142,-0.0143,-0.0197,0,0.0174,0.0193,0.0181,0.02,0.0209,0.0183,0.0184,0.0167,0.0142,0.0128,0.0077,0.0054,0.0008,-0.0007,-0.0043,-0.0101,-0.0131,-0.0105,-0.0187,-0.0189,-0.0186,-0.0191,-0.0144,-0.02,-0.0201,-0.0201,-0.0202,0,0.0199,0.021,0.0234,0.0247,0.0249,0.0253,0.0253,0.0248,0.0217,0.0196,0.0159,0.0118,0.007,0.0029,-0.0065,-0.0047,-0.0111,-0.0158,-0.0162,-0.0174,-0.0197,-0.0205,-0.0209,-0.0209,-0.0208,-0.0208,-0.0207,0,0.0232,0.0249,0.0272,0.0274,0.0279,0.0287,0.0287,0.0268,0.0272,0.0237,0.0233,0.0166,0.0133,0.0048,-0.0058,-0.0063,-0.016,-0.018,-0.0239,-0.024,-0.0237,-0.0236,-0.0247,-0.0246,-0.0246,-0.0246,-0.0246,0,0.0262,0.0284,0.0291,0.0304,0.0336,0.0324,0.0349,0.0336,0.0326,0.0333,0.0269,0.0258,0.0134,0.0063,-0.0037,-0.0147,-0.0148,-0.0233,-0.0254,-0.0223,-0.022,-0.024,-0.0238,-0.0248,-0.0248,-0.0247,-0.0247,0,0.029,0.0296,0.0326,0.0342,0.035,0.037,0.0389,0.0406,0.0389,0.0397,0.0388,0.0321,0.0225,0.0106,-0.0033,-0.0114,-0.0222,-0.0262,-0.0212,-0.0229,-0.0288,-0.0284,-0.0329,-0.033,-0.033,-0.0331,-0.0331,0,0.0305,0.0322,0.0353,0.0373,0.0381,0.0409,0.0431,0.0431,0.0447,0.0434,0.0441,0.0363,0.03,0.0118,-0.0019,-0.0199,-0.0232,-0.0286,-0.0297,-0.028,-0.0296,-0.0292,-0.0288,-0.0331,-0.0332,-0.0332,-0.0332,0,0.0331,0.034,0.0363,0.0402,0.0432,0.0469,0.0496,0.0516,0.0517,0.0512,0.0483,0.0385,0.028,0.0126,-0.0015,-0.0147,-0.0249,-0.0291,-0.0292,-0.0302,-0.0284,-0.0298,-0.0294,-0.0333,-0.0333,-0.0333,-0.0333,0,0.0346,0.0365,0.0391,0.0423,0.0467,0.0506,0.0523,0.0539,0.0553,0.0538,0.0527,0.0412,0.0342,0.0153,0.0025,-0.0105,-0.0145,-0.0192,-0.0198,-0.0199,-0.015,-0.0107,-0.0116,0,0,0,0,0,0.0355,0.0374,0.0409,0.0445,0.0489,0.0511,0.0557,0.0571,0.058,0.0567,0.0546,0.0448,0.0259,0.0182,0.0052,0.0004,-0.0175,-0.0154,-0.0234,-0.0341,-0.0339,-0.0305,0,0,0,0,0,0,0.0361,0.0394,0.0408,0.0453,0.0479,0.0529,0.056,0.057,0.0561,0.0554,0.0461,0.041,0.0231,0.0332,0.0048,0.0008,-0.0061,-0.0241,-0.0244,-0.0342,-0.034,-0.0339,-0.0304,0,0,0,0,0]}]]